Location: downtown San Diego
(32.7310°N, 117.1990°W)
Time: 08:27:51
(UTC-08:00)

ASTEX 1 - Pass Details

Date: 19 May 2017
Orbit: 721 x 743 km, 92.7° (Epoch: 22 November)

Event Time Altitude Azimuth Distance (km) Brightness Sun altitude
Exits shadow 21:03:48 24° 115° (ESE) 1,487 4.4 -15.3°
Maximum altitude 21:05:37 31° 78° (ENE) 1,266 4.3 -15.6°
Drops below altitude 10° 21:09:54 10° 17° (NNE) 2,223 6.2 -16.3°
Sets 21:12:23 0° 7° (N) 3,145 7.1 -16.7°
